Location: Cheyres
(46.8153°N, 6.7877°E)
Time: 20:41:38
(UTC+00:00)

NANOSAT C BR1 - Pass Details

Date: 01 July 2022
Orbit: 584 x 599 km, 98.0° (Epoch: 13 August)

Event Time Altitude Azimuth Distance (km) Brightness Sun altitude
Rises 02:47:27 0° 1° (N) 2,849 ? -7.9°
Reaches altitude 10° 02:49:56 10° 348° (NNW) 1,944 ? -7.6°
Maximum altitude 02:53:17 23° 295° (WNW) 1,282 ? -7.2°
Drops below altitude 10° 02:56:36 10° 243° (WSW) 1,939 ? -6.8°
Enters shadow 02:57:08 - 239° (WSW) 2,118 ? -6.7°
